FALCON 9 DEB (53238 NORAD) Tracking and Keplerian Element Data

This shows tracking and keplerian element data for the satellite.

Feedback or suggestion? Click here.




ElementValue
Catalog53238
NameFALCON 9 DEB
Epoch Orbit723
Epoch Day248.16233945
Epoch Year2022
RAAN311.4309
Inclination97.67
Eccentricity0.0002043
Argument of Perigee135.9169
Mean Anonmoly224.2274
Mean Motion16.05025938
Decay Rate0.00572933
L11 53238U 22084BB 22248.16233945 .00572933 15925-3 84507-3 0 9999
L22 53238 97.6700 311.4309 0002043 135.9169 224.2274 16.05025938 7230

Live tracking and technical data element details for FALCON 9 DEB (NORAD 53238). FALCON 9 DEB can be tracked NOW for your location showing map with azimuth and elevation plus other details from your city location.

Track the satellite on the map from your city or location and see movement details for azimuth, elevation, latitude, longitude, range, height, and movement on the map or in text.







IsCatalogInMostPopularTable: catalog: 53238, numindb: 2
Update: records affected: 1



GetName: 53238 FALCON 9 DEB

Hit Count: updated at: Wed, 28 Sep 2022 23:42:19 GMT